• In Spain
  • List of Countries
  • For 7 days
  • Water Temperature
  • Satellite Maps
  • Weather Map
  • Weather Widgets
  • user-avatar
    Login

    Hourly Weather Andora

    Today, 21 August, Monday

    Time Temperature Precipitation Wind Pressure Humidity
    00:00 +10°C° 0 mm 2 mps 630 mmHg 46%
    01:00 +10°C° 0 mm 2 mps 629 mmHg 45%
    02:00 +10°C° 0 mm 2 mps 629 mmHg 43%
    03:00 +10°C° 0 mm 2 mps 629 mmHg 41%
    04:00 +10°C° 0 mm 2 mps 629 mmHg 43%
    05:00 +10°C° 0 mm 2 mps 629 mmHg 44%
    06:00 +12°C° 0 mm 2 mps 630 mmHg 43%
    07:00 +15°C° 0 mm 1 mps 631 mmHg 39%
    08:00 +19°C° 0 mm 1 mps 632 mmHg 35%
    09:00 +22°C° 0 mm 1 mps 633 mmHg 31%
    10:00 +23°C° 0 mm 1 mps 633 mmHg 29%
    11:00 +25°C° 0 mm 1 mps 633 mmHg 28%
    12:00 +26°C° 0 mm 1 mps 633 mmHg 27%
    13:00 +26°C° 0 mm 1 mps 633 mmHg 28%
    14:00 +26°C° 0 mm 2 mps 633 mmHg 28%
    15:00 +26°C° 0 mm 2 mps 632 mmHg 29%
    16:00 +25°C° 0 mm 2 mps 632 mmHg 37%
    17:00 +23°C° 0 mm 1 mps 631 mmHg 44%
    18:00 +21°C° 0 mm 1 mps 630 mmHg 52%
    19:00 +19°C° 0 mm 1 mps 630 mmHg 58%
    20:00 +16°C° 0 mm 1 mps 629 mmHg 64%
    21:00 +15°C° 0 mm 1 mps 629 mmHg 71%
    22:00 +14°C° 0 mm 1 mps 629 mmHg 72%
    23:00 +14°C° 0 mm 1 mps 629 mmHg 74%

    Tomorrow, 22 August, Tuesday

    Time Temperature Precipitation Wind Pressure Humidity
    00:00 +14°C° 0 mm 1 mps 628 mmHg 76%
    01:00 +14°C° 0 mm 1 mps 628 mmHg 76%
    02:00 +14°C° 0 mm 1 mps 628 mmHg 77%
    03:00 +13°C° 0 mm 1 mps 628 mmHg 77%
    04:00 +14°C° 0 mm 1 mps 628 mmHg 77%
    05:00 +14°C° 0 mm 1 mps 628 mmHg 77%
    06:00 +14°C° 0 mm 1 mps 628 mmHg 77%
    07:00 +18°C° 0 mm 1 mps 629 mmHg 64%
    08:00 +20°C° 0 mm 2 mps 631 mmHg 52%
    09:00 +24°C° 0 mm 2 mps 632 mmHg 39%
    10:00 +25°C° 0 mm 2 mps 632 mmHg 35%
    11:00 +27°C° 0 mm 2 mps 632 mmHg 31%
    12:00 +28°C° 0 mm 2 mps 632 mmHg 27%
    13:00 +28°C° 0 mm 2 mps 632 mmHg 28%
    14:00 +28°C° 0 mm 2 mps 632 mmHg 28%
    15:00 +28°C° 0 mm 2 mps 632 mmHg 28%
    16:00 +26°C° 0 mm 2 mps 631 mmHg 36%
    17:00 +24°C° 0 mm 1 mps 630 mmHg 43%
    18:00 +22°C° 0 mm 1 mps 630 mmHg 51%
    19:00 +20°C° 0 mm 1 mps 629 mmHg 57%
    20:00 +19°C° 0 mm 1 mps 629 mmHg 62%
    21:00 +16°C° 0 mm 1 mps 629 mmHg 68%
    22:00 +15°C° 0.1 mm 1 mps 629 mmHg 69%
    23:00 +15°C° 0.1 mm 1 mps 628 mmHg 70%

    Day after tomorrow, 23 August, Wednesday

    Time Temperature Precipitation Wind Pressure Humidity
    00:00 +15°C° 0.1 mm 1 mps 628 mmHg 71%
    01:00 +15°C° 0.1 mm 1 mps 628 mmHg 71%
    02:00 +14°C° 0.1 mm 1 mps 628 mmHg 71%
    03:00 +14°C° 0.1 mm 1 mps 628 mmHg 71%
    04:00 +13°C° 0.2 mm 0 mps 628 mmHg 70%
    05:00 +13°C° 0.2 mm 0 mps 628 mmHg 70%
    06:00 +13°C° 0.2 mm 0 mps 629 mmHg 69%
    07:00 +18°C° 0.1 mm 1 mps 630 mmHg 61%
    08:00 +20°C° 0.1 mm 1 mps 631 mmHg 53%
    09:00 +23°C° 0.1 mm 2 mps 632 mmHg 45%
    10:00 +24°C° 0 mm 2 mps 632 mmHg 42%
    11:00 +25°C° 0 mm 2 mps 632 mmHg 40%
    12:00 +26°C° 0 mm 3 mps 632 mmHg 37%
    13:00 +26°C° 0.1 mm 3 mps 632 mmHg 38%
    14:00 +26°C° 0.1 mm 2 mps 631 mmHg 39%
    15:00 +25°C° 0.1 mm 2 mps 631 mmHg 40%
    16:00 +24°C° 0.1 mm 2 mps 631 mmHg 46%
    17:00 +23°C° 0.1 mm 2 mps 630 mmHg 52%
    18:00 +21°C° 0.1 mm 1 mps 629 mmHg 58%
    19:00 +19°C° 0.1 mm 1 mps 629 mmHg 63%
    20:00 +18°C° 0.1 mm 1 mps 629 mmHg 68%
    21:00 +15°C° 0.1 mm 1 mps 628 mmHg 73%
    22:00 +15°C° 0 mm 1 mps 628 mmHg 72%
    23:00 +15°C° 0 mm 1 mps 628 mmHg 71%

    24 August, Thursday

    Time Temperature Precipitation Wind Pressure Humidity
    00:00 +15°C° 0 mm 1 mps 628 mmHg 70%
    01:00 +14°C° 0 mm 1 mps 628 mmHg 68%
    02:00 +14°C° 0 mm 1 mps 628 mmHg 67%
    03:00 +14°C° 0 mm 1 mps 627 mmHg 65%
    04:00 +14°C° 0 mm 1 mps 628 mmHg 64%
    05:00 +14°C° 0 mm 1 mps 628 mmHg 64%
    06:00 +14°C° 0 mm 1 mps 628 mmHg 63%
    07:00 +18°C° 0 mm 1 mps 629 mmHg 55%
    08:00 +19°C° 0 mm 2 mps 630 mmHg 47%
    09:00 +23°C° 0 mm 2 mps 631 mmHg 39%
    10:00 +24°C° 0.1 mm 2 mps 631 mmHg 37%
    11:00 +25°C° 0.1 mm 3 mps 632 mmHg 34%
    12:00 +26°C° 0.1 mm 3 mps 632 mmHg 32%
    13:00 +26°C° 0 mm 3 mps 632 mmHg 32%
    14:00 +27°C° 0 mm 3 mps 631 mmHg 32%
    15:00 +27°C° 0 mm 3 mps 631 mmHg 32%
    16:00 +25°C° 0 mm 3 mps 630 mmHg 37%
    17:00 +23°C° 0 mm 2 mps 630 mmHg 42%
    18:00 +20°C° 0 mm 2 mps 629 mmHg 48%
    19:00 +19°C° 0 mm 2 mps 628 mmHg 50%
    20:00 +17°C° 0 mm 2 mps 628 mmHg 53%
    21:00 +15°C° 0 mm 1 mps 628 mmHg 55%
    22:00 +15°C° 0 mm 1 mps 627 mmHg 54%
    23:00 +15°C° 0 mm 1 mps 627 mmHg 53%

    25 August, Friday

    Time Temperature Precipitation Wind Pressure Humidity
    00:00 +14°C° 0 mm 1 mps 627 mmHg 51%
    01:00 +14°C° 0 mm 1 mps 627 mmHg 52%
    02:00 +14°C° 0 mm 2 mps 626 mmHg 53%
    03:00 +13°C° 0 mm 2 mps 626 mmHg 53%
    04:00 +13°C° 0 mm 2 mps 626 mmHg 53%
    05:00 +14°C° 0 mm 2 mps 626 mmHg 53%
    06:00 +14°C° 0 mm 2 mps 626 mmHg 53%
    07:00 +17°C° 0 mm 2 mps 627 mmHg 45%
    08:00 +19°C° 0 mm 2 mps 628 mmHg 38%
    09:00 +22°C° 0 mm 3 mps 630 mmHg 30%
    10:00 +25°C° 0 mm 3 mps 630 mmHg 28%
    11:00 +26°C° 0 mm 3 mps 630 mmHg 26%
    12:00 +27°C° 0 mm 4 mps 630 mmHg 25%
    13:00 +27°C° 0 mm 4 mps 630 mmHg 25%
    14:00 +27°C° 0 mm 4 mps 629 mmHg 26%
    15:00 +26°C° 0 mm 4 mps 629 mmHg 27%
    16:00 +25°C° 0 mm 3 mps 628 mmHg 32%
    17:00 +22°C° 0 mm 3 mps 627 mmHg 38%
    18:00 +20°C° 0 mm 2 mps 627 mmHg 44%
    19:00 +18°C° 0 mm 2 mps 626 mmHg 47%
    20:00 +16°C° 0 mm 2 mps 626 mmHg 50%
    21:00 +15°C° 0 mm 2 mps 625 mmHg 54%
    22:00 +14°C° 0.1 mm 2 mps 625 mmHg 52%
    23:00 +14°C° 0.1 mm 2 mps 625 mmHg 51%

    26 August, Saturday

    Time Temperature Precipitation Wind Pressure Humidity
    00:00 +14°C° 0.1 mm 2 mps 625 mmHg 49%
    01:00 +14°C° 0 mm 2 mps 625 mmHg 49%
    02:00 +14°C° 0 mm 1 mps 624 mmHg 49%
    03:00 +14°C° 0 mm 1 mps 624 mmHg 48%
    04:00 +14°C° 0 mm 1 mps 624 mmHg 51%
    05:00 +14°C° 0 mm 1 mps 624 mmHg 53%
    06:00 +14°C° 0 mm 1 mps 625 mmHg 56%
    07:00 +16°C° 0 mm 2 mps 626 mmHg 52%
    08:00 +19°C° 0 mm 2 mps 627 mmHg 48%
    09:00 +21°C° 0 mm 3 mps 628 mmHg 44%
    10:00 +22°C° 0 mm 3 mps 628 mmHg 42%
    11:00 +23°C° 0 mm 4 mps 628 mmHg 40%
    12:00 +25°C° 0 mm 4 mps 628 mmHg 38%
    13:00 +25°C° 0.5 mm 4 mps 627 mmHg 42%
    14:00 +23°C° 0.5 mm 4 mps 627 mmHg 46%
    15:00 +23°C° 0.5 mm 4 mps 627 mmHg 50%
    16:00 +21°C° 1.5 mm 4 mps 626 mmHg 58%
    17:00 +20°C° 1.5 mm 3 mps 626 mmHg 66%
    18:00 +18°C° 1.5 mm 2 mps 625 mmHg 74%
    19:00 +17°C° 0.4 mm 2 mps 625 mmHg 78%
    20:00 +15°C° 0.4 mm 2 mps 625 mmHg 81%
    21:00 +14°C° 0.4 mm 1 mps 625 mmHg 85%
    22:00 +14°C° 0 mm 1 mps 625 mmHg 82%
    23:00 +13°C° 0 mm 1 mps 625 mmHg 80%
    Show more